Weather observations for the past three days for
Nikolai
Metric (Imperial)
Date Time (akdt) Wind (kph) Vis. (km) Weather Sky Cond. Temperature (ºC) Relative Humidity Wind Chill (°C) Heat Index (°C) Pressure Precipitation (cm)
Air Dwpt 6 hour altimeter (cm) sea level (mb) 1 hr 3 hr 6 hr
Max. Min.
22 00:01 Calm 16.09 Overcast OVC110 15 12.2 83% 75.82 1011.1
21 23:01 Calm 16.09 A Few Clouds FEW120 17.2 11.1 68% 75.82 1011.0
21 22:01 NW 6 16.09 Partly Cloudy FEW065 SCT120 17.8 11.1 24.4 16.7 65% 75.82 1011.2
21 21:01 NW 7 16.09 Mostly Cloudy BKN085 17.8 11.1 65% 75.82 1011.1
21 20:01 Vrbl 9 16.09 A Few Clouds FEW110 17.2 11.1 68% 75.79 1010.9
21 19:01 N 11 16.09 Overcast BKN095 OVC120 21.7 8.9 44% 75.74 1010.2
21 18:01 Calm 16.09 Fair CLR 24.4 8.9 37% 25 75.72 1009.8
21 17:01 Vrbl 6 16.09 Mostly Cloudy BKN065 23.3 9.4 41% 75.72 1010.0
21 16:01 Vrbl 7 16.09 A Few Clouds FEW055 23.3 10 23.9 12.8 43% 75.77 1010.5
21 15:01 Vrbl 7 16.09 Fair CLR 22.2 10 46% 75.79 1011.0
21 14:01 E 9 16.09 Fair CLR 22.2 9.4 44% 75.84 1011.4
21 13:01 Vrbl 7 16.09 Fair CLR 20.6 10.6 53% 75.87 1012.1
21 12:01 Calm 16.09 Fair CLR 18.3 9.4 56% 75.9 1012.4
21 11:01 Calm 16.09 Fair CLR 16.1 10 67% 75.92 1012.7
21 10:01 Calm 16.09 Fair CLR 12.8 10.6 12.8 6.7 87% 75.97 1013.1
21 09:01 Calm 16.09 Fair CLR 10.6 10 96% 75.97 1013.4
21 08:01 Calm 16.09 Fair CLR 8.9 8.3 96% 75.97 1013.4
21 07:01 Calm 16.09 A Few Clouds FEW002 7.8 7.8 100% 75.97 1013.4
21 06:01 Calm 16.09 A Few Clouds FEW001 7.2 7.2 100% 75.97 1013.2
21 05:01 Calm 16.09 Fair CLR 7.2 7.2 100% 75.95 1013.2
21 04:01 Calm 16.09 Fair CLR 8.3 8.3 15 8.3 100% 75.92 1012.7
21 03:01 Calm 16.09 Fair CLR 8.9 8.9 100% 75.92 1012.7
21 02:01 N 7 16.09 Fair CLR 10.6 10 96% 75.92 1012.4
21 01:01 N 6 16.09 Fair CLR 11.7 10.6 93% 75.92 1012.6 0.03
21 00:01 E 6 16.09 Fair CLR 13.3 11.1 87% 75.92 1012.4
20 23:01 E 9 16.09 Fair CLR 14.4 10.6 78% 75.9 1012.1
20 22:01 E 9 16.09 Fair CLR 15 10.6 21.1 13.3 75% 75.87 1012.0 0.2
20 21:01 N 13 16.09 Fair CLR 15.6 10.6 72% 75.87 1011.8
20 19:01 NE 20 G 33 14.48 Light Rain BKN070 OVC085 13.3 9.4 77% 75.92 1012.8 0.03 0.18
20 18:01 NE 11 16.09 Partly Cloudy FEW085 SCT110 17.2 12.2 73% 75.87 1012.1 0.15
20 17:01 S 6 8.05 Rain BKN070 OVC085 13.9 10.6 81% 75.92 1012.9
20 16:01 NE 17 G 28 16.09 Partly Cloudy SCT110 20.6 7.2 23.9 15.6 42% 75.9 1012.1
20 15:01 NE 33 G 39 16.09 Fair and Breezy CLR 22.2 7.8 40% 75.9 1012.2
20 14:01 E 17 G 26 16.09 A Few Clouds FEW060 22.8 8.3 40% 75.95 1012.9
20 13:01 NE 11 16.09 A Few Clouds FEW055 21.7 8.9 44% 76 1013.6
20 12:01 NE 11 16.09 Fair CLR 20.6 8.3 45% 76.02 1014.1
20 11:01 Calm 16.09 Fair CLR 18.3 9.4 56% 76.07 1014.8
20 10:01 Calm 16.09 Fair CLR 15.6 10 15.6 5.6 70% 76.12 1015.4
20 09:01 Calm 16.09 Fair CLR 13.3 10.6 84% 76.17 1015.8
20 08:01 Calm 16.09 Fair CLR 10.6 8.9 89% 76.2 1016.2
20 07:01 Calm 16.09 Fair CLR 8.3 7.8 97% 76.2 1016.4
20 06:01 Calm 16.09 A Few Clouds FEW002 6.7 6.7 100% 76.23 1016.6
20 05:01 Calm 4.83 Fog/Mist CLR 5.6 5.6 100% 76.2 1016.5
20 04:01 Calm 16.09 Fair CLR 7.8 7.8 15 6.1 100% 76.23 1016.5
20 03:01 Calm 16.09 Fair CLR 8.3 7.8 97% 76.23 1016.6
20 02:01 Calm 16.09 Fair CLR 9.4 8.9 97% 76.23 1016.5
20 01:01 S 6 16.09 Fair CLR 10 9.4 96% 76.23 1016.5 0.03
20 00:01 Calm 16.09 A Few Clouds FEW120 11.7 11.1 96% 76.2 1016.3
19 23:01 Calm 16.09 Mostly Cloudy BKN095 13.3 10.6 84% 76.2 1016.4
19 22:01 NW 13 16.09 Light Rain FEW060 BKN085 OVC120 14.4 10 21.1 13.9 75% 76.17 1015.9 0.03 0.03
19 21:01 Calm 16.09 Light Rain FEW047 SCT065 OVC085 13.9 11.1 83% 76.17 1016.0
19 20:01 SW 19 G 31 16.09 Overcast SCT065 OVC080 17.2 7.8 54% 76.17 1016.0
19 19:01 SW 15 16.09 Overcast SCT090 OVC110 19.4 5 39% 76.12 1015.5
19 18:01 W 13 14.48 Partly Cloudy FEW090 SCT110 20 3.9 35% 76.12 1015.4
19 17:01 W 15 16.09 Fair CLR 21.1 3.9 32% 76.12 1015.4
19 16:01 W 11 16.09 Fair CLR 20 3.9 20 14.4 35% 76.15 1015.9
19 15:01 W 15 16.09 Fair CLR 19.4 4.4 37% 76.2 1016.2
19 14:01 Vrbl 9 16.09 Fair CLR 18.9 4.4 39% 76.2 1016.5
19 13:01 W 15 16.09 Fair CLR 17.8 5.6 45% 76.23 1016.7
19 12:01 Vrbl 6 16.09 Fair CLR 16.7 5 46% 76.25 1016.8
19 11:01 Vrbl 9 16.09 Fair CLR 15.6 5 50% 76.25 1017.0
19 10:01 Calm 16.09 Fair CLR 14.4 5 14.4 10.6 53% 76.25 1016.9
19 09:01 SW 7 16.09 Fair CLR 13.3 5.6 60% 76.25 1017.1
19 08:01 SW 6 16.09 Fair CLR 12.8 5.6 62% 76.25 1017.1
19 07:01 Calm 16.09 Partly Cloudy SCT120 11.7 5.6 66% 76.25 1017.2
19 06:01 Calm 16.09 Mostly Cloudy BKN120 10.6 5 69% 76.25 1017.1
19 05:01 SW 6 16.09 Overcast OVC110 11.7 3.9 59% 76.23 1016.5
19 04:01 SW 6 16.09 Overcast OVC090 11.7 2.8 20 11.7 55% 76.2 1016.1
19 03:01 Calm 16.09 Mostly Cloudy FEW095 BKN120 12.2 2.8 53% 76.15 1015.7
19 02:01 SW 7 16.09 Mostly Cloudy BKN100 12.8 1.1 45% 76.12 1015.2
19 01:01 SW 13 16.09 Fair CLR 14.4 1.1 41% 76.07 1014.6
Date Time (akdt) Wind (kph) Vis. (km) Weather Sky Cond. Air Dwpt Max. Min. Relative Humidity Wind Chill (°C) Heat Index (°C) altimeter (cm) sea level (mb) 1 hr 3 hr 6 hr
6 hour
Temperature (ºC) Pressure Precipitation (cm)